Regional Weather Roundup
Issued by NWS

Home | Current Version | Previous Version | Text Only | Print | Product List | Glossary Off
Versions: 1 2 3 4 5 6 7 8 9 10 11 12 13 14 15 16 17 18 19 20 21 22 23 24 25 26 27 28 29 30 31 32 33 34 35 36 37 38 39 40 41 42 43 44 45 46 47 48 49 50

000
ASUS43 KIND 210509
RWRIN

WEATHER ROUNDUP FOR INDIANA
NATIONAL WEATHER SERVICE INDIANAPOLIS IN
100 AM EDT THU AUG 21 2014

NOTE: "FAIR" INDICATES FEW OR NO CLOUDS BELOW 12,000 FEET WITH NO
SIGNIFICANT WEATHER AND/OR OBSTRUCTIONS TO VISIBILITY.

* - STATION DOES NOT REPORT WEATHER SUCH AS PRECIPITATION OR FOG.

+ - STATION NOT QUALITY CONTROLLED BY THE NATIONAL WEATHER SERVICE.
    USE DATA WITH CAUTION...ESPECIALLY DEWPOINT AND RELATIVE
    HUMIDITY OBSERVATIONS.

INZ001>003-010>013-019-020-210600-
NORTHWEST INDIANA

CITY           SKY/WX    TMP DP  RH WIND       PRES   REMARKS
GARY /AIRPORT/ CLOUDY    76  65  69 SW3       29.96F
KNOX *+        CLOUDY    69  65  88 CALM      29.96F
LA PORTE +     MOCLDY    71  71 100 SW5       29.97F
MICHIGAN CITY+ MOCLDY    72  70  94 CALM      29.97S
MONTICELLO +   CLOUDY    70  68  92 S5        29.99F
RENSSELAER +   RAIN      70  70 100 S5        30.00R
VALPARAISO     CLOUDY    71  66  84 SW5       29.98S

$$

LMZ046-743>745-210600-
SOUTHERN LAKE MICHIGAN

STATION/POSITION TIME  TEMP WIND        PRES
                       AIR  DIR/SP/G
                 (UTC) (F)  (DEG/KT/KT) (MB)
MICHIGAN CITY    0500   74  190/  6/  8   N/A

$$

INZ004-005-014>016-021>024-210600-
NORTH CENTRAL INDIANA

CITY           SKY/WX    TMP DP  RH WIND       PRES   REMARKS
GOSHEN         CLOUDY    75  70  84 SW5       29.97F
LOGANSPORT +   MOCLDY    68  64  88 CALM      30.01F
PERU/GRISSOM   MOCLDY    69  69 100 S5        30.01S
ROCHESTER +    MOCLDY    72  68  88 SW6       30.00S
SOUTH BEND     MOCLDY    74  68  81 S5        29.98F
WARSAW +       CLOUDY    72  70  94 CALM      29.99F

$$

INZ006>009-017-018-025>027-210600-
NORTHEAST INDIANA

CITY           SKY/WX    TMP DP  RH WIND       PRES   REMARKS
ANGOLA *+      CLEAR     70  61  73 CALM      29.99F
AUBURN +       PTCLDY    73  64  73 CALM      30.01S
FORT WAYNE     MOCLDY    70  67  90 W6        30.01R
HUNTINGTON +   PTCLDY    70  67  92 SW3       30.00F

$$

INZ028-029-035-036-043>045-051>053-210600-
WEST CENTRAL INDIANA

CITY           SKY/WX    TMP DP  RH WIND       PRES   REMARKS
GREENCASTLE +  MOCLDY    68  68 100 CALM      30.03S
LAFAYETTE      CLOUDY    70  68  93 CALM      30.01R
TERRE HAUTE    MOCLDY    71  68  90 CALM      30.00F

$$

INZ030>032-037>040-046>048-054>057-064-065-210600-
CENTRAL INDIANA

CITY           SKY/WX    TMP DP  RH WIND       PRES   REMARKS
CP ATTERBURY + CLOUDY    72  68  88 SW3       30.03F
FRANKFORT +    CLOUDY   N/A N/A N/A CALM      30.04R
GREENWOOD *+   CLOUDY    73  72  94 CALM      30.04
INDIANAPOLIS   CLOUDY    72  68  87 SW5       30.02R
-EAGLE CREEK   MOCLDY    73  67  81 SW5       30.02S
KOKOMO *+      MOCLDY    68  64  88 S6        30.02S
MARION +       PTCLDY    66  64  91 SW6       30.03S
MT COMFORT *+  MOCLDY    70 N/A N/A CALM      30.04S
SHELBYVILLE    CLOUDY    73 N/A N/A S5        30.03S
ZIONSVILLE +   MOCLDY    70  66  86 CALM      30.04S

$$

INZ033-034-041-042-049-050-058-059-210600-
EAST CENTRAL INDIANA

CITY           SKY/WX    TMP DP  RH WIND       PRES   REMARKS
MUNCIE         PTCLDY    72  66  81 SW7       30.03R

$$

INZ060-061-067>069-081>083-085>088-210600-
SOUTHWEST INDIANA

CITY           SKY/WX    TMP DP  RH WIND       PRES   REMARKS
EVANSVILLE     PTCLDY    77  69  76 S3        30.03S
WASHINGTON +   PTCLDY    72  71  98 S6        30.00F

$$

INZ062-063-066-070>080-084-089>092-210600-
SOUTH CENTRAL AND SOUTHEAST INDIANA

CITY           SKY/WX    TMP DP  RH WIND       PRES   REMARKS
BEDFORD +      MOCLDY    73  66  78 S5        30.03F
BLOOMINGTON    MOCLDY    73  68  84 S6        30.02F

$$



USA.gov is the U.S. government's official web portal to all federal, state and local government web resources and services.